Weather in Mizur

Russia / Republic of North Ossetia — Alania     42°51′00″N   44°03′14″E
temp.,
°C
wind,
m/s
gust,
m/s
humid.,
%
clouds,
%
prec.,
mm/h
press.,
hPa
HPBL,
m
8 august, mon
mon800:00+8ene019478 0.2 101441
03:00+8nne119568 0.7 101537
06:00+7n229881 0.7 1016132
09:00+8nne339481 0.9 1017329
12:00+9nne338987 0.4 1017520
15:00+10nne339186 1.0 1017465
18:00+8nne339683 0.3 1018237
21:00+7nne229572 0.4 1020151
9 august, tue
tue900:00+5nne129527 0.0 102052
03:00+4nne01894 0.0 101912
06:00+6nne12903 0.0 101926
09:00+12ne227137 0.0 1017837
12:00+11nne338499 0.1 1017522
15:00+10nne339599 0.5 1018328
18:00+10nne229580 0.1 1018202
21:00+6e119832 0.1 101925
10 august, wed
wed1000:00+6sse22924 0.0 101817
03:00+5s22932 0.0 101825
06:00+7sse229653 0.0 101756
09:00+14se22689 0.0 1014700
12:00+16se136750 0.3 10121008
15:00+15se127653 2.6 1013702
18:00+13sse128389 1.3 1014211
21:00+9s33890 1.3 101628
11 august, thu
thu1100:00+8s45924 0.0 101767
03:00+7s45919 0.0 101681
06:00+8ssw458572 0.0 101697
09:00+15s336239 0.1 1013432
12:00+18s23600 0.6 1012966
15:00+17ssw226946 2.6 1013866
18:00+14ssw238157 1.6 1015195
21:00+11ssw34870 1.7 101850
12 august, fri
fri1200:00+9s34900 0.0 101951
03:00+8s33890 0.0 101838
06:00+9s22890 0.0 101840
09:00+17se12615 0.0 1015658
12:00+19ese12590 0.8 10141033
15:00+18ne126314 1.8 10151103
18:00+16ese127944 1.1 1016381
21:00+10s33860 1.5 101925